Location: Caltech
(34.1382°N, 118.1253°W)
Time: 03:31:16
(UTC-07:00)

ARGOS - Visible Passes

Search period start: 27 April 2015 00:00
Search period end: 07 May 2015 00:00
Orbit: 821 x 834 km, 98.7° (Epoch: 26 April)

Date Brightness Start Highest point End Pass type
(mag) Time Alt. Az. Time Alt. Az. Time Alt. Az.
27 Apr 3.7 22:29:35 55° N 22:29:35 55° N 22:33:47 10° NNW visible
28 Apr 3.6 22:10:48 50° NE 22:10:48 50° NE 22:15:12 10° N visible
28 Apr 5.7 23:52:18 13° WNW 23:52:18 13° WNW 23:53:27 10° WNW visible
29 Apr 3.9 21:51:59 37° ENE 21:51:59 37° ENE 21:56:28 10° N visible
29 Apr 5.3 23:33:31 20° WNW 23:33:31 20° WNW 23:36:02 10° NW visible
30 Apr 4.4 21:33:12 25° ENE 21:33:12 25° ENE 21:37:33 10° NNE visible
30 Apr 4.7 23:14:43 30° WNW 23:14:43 30° WNW 23:18:08 10° NNW visible
01 May 4.8 21:14:24 17° ENE 21:14:49 17° ENE 21:18:20 10° NNE visible
01 May 4.1 22:55:55 44° WNW 22:55:55 44° WNW 22:59:58 10° NNW visible
02 May 5.2 20:55:37 11° ENE 20:56:32 11° ENE 20:58:16 10° NE visible
02 May 3.5 22:37:08 61° NNW 22:37:08 61° NNW 22:41:37 10° NNW visible
03 May 3.3 22:18:20 62° NE 22:18:20 62° NE 22:23:06 10° N visible
03 May 5.8 23:59:51 11° WNW 23:59:51 11° WNW 00:00:29 10° WNW visible
04 May 3.6 21:59:32 44° ENE 21:59:32 44° ENE 22:04:26 10° N visible
04 May 5.3 23:41:04 18° WNW 23:41:04 18° WNW 23:43:30 10° NW visible
05 May 4.1 21:40:45 30° ENE 21:40:55 30° ENE 21:45:36 10° N visible
05 May 4.8 23:22:16 27° WNW 23:22:16 27° WNW 23:25:46 10° NW visible
06 May 4.6 21:21:57 20° ENE 21:22:35 20° ENE 21:26:32 10° NNE visible
06 May 4.2 23:03:28 40° WNW 23:03:28 40° WNW 23:07:42 10° NNW visible
